Presure
110 154 157 173 170 160 155 153 172 136 159 160 146 170 170 157 177 138 148 136 157 156 103 99 101 152 110 97 109 101 107 104 189
103 115 167 160 134 181 179 141 154 160 155 167 162 157 134 104 107 109 109 104 116 120 132 136 100 101 102 148 136 125 137 141 129
106 122 107 125 179 133 147 179 150 161 133 164 160 112 111 161 150 165 156 130 155 128 162 102 104 126 148 148 114 109 132 121 124
140 159 107 104 108 167 163 128 143 141 153 161 152 145 163 166 143 111 143 154 139 144 148 157 113 143 103 108 117 109 126 127 101
141 176 169 158 155 158 166 146 157 135 157 157 165 161 149 157 158 166 160 163 161 124 124 125 122 114 107 108 121 137 138 143 140
193 197 153 195 146 129 114 153 153 145 141 140 149 156 162 152 151 134 115 103 104 104 146 124 116 110 107 118 131 148 148 146 155
156 188 192 138 189 138 172 121 100 149 112 127 122 102 113 143 123 158 149 166 176 154 162 207 196 166 157 149 151 164 169 165 125
166 173 158 190 119 135 188 191 150 155 159 183 141 135 102 135 124 113 125 102 103 109 179 176 193 194 194 166 130 163 181 133 136
96 168 181 167 189 192 148 192 155 164 173 140 170 170 142 143 145 159 165 146 130 137 137 127 144 158 139 138 136 136 136 137 139
162 176 184 135 189 201 196 193 192 191 173 164 159 158 175 186 159 136 184 187 148 157 134 161 173 147 135 171 159 134 176 175 180
183 183 173 179 192 192 200 190 193 194 180 159 174 172 167 160 179 169 176 157 142 142 142 168 167 166 122 143 131 165 102 116 95
164 169 192 192 205 176 134 168 201 94 98 199 177 194 189 168 170 170 108 182 173 93 89 171 179 186 127 105 188 193 148 180 173
163 131 204 141 172 213 211 203 167 186 186 203 188 150 159 141 171 195 190 178 126 187 191 184 186 188 183 169 189 158 184 168 185
144 154 194 172 154 173 202 176 174 196 215 212 166 202 209 213 205 166 166 184 186 191 183 181 178 183 164 178 181 190 153 168 173
172 177 183 149 168 170 140 146 183 154 150 195 190 200 202 207 185 209 201 189 162 202 189 186 191 168 136 191 188 186 150 136 155
191 188 186 178 136 142 166 150 196 169 140 144 148 158 166 191 184 157 193 193 207 201 158 160 138 136 145 197 190 144 143 142 169
165 141 139 170 141 137 137 135 135 135 179 176 180 208 183 174 182 151 210 215 164 156 155 172 146 160 170 157 177 153 159 165 162
142 138 175 141 137 139 144 139 140 137 135 138 148 154 221 189 183 181 215 153 167 167 151 162 169 193 200 185 199 184 190 159 190
215 211 203 160 160 195 144 146 135 131 131 138 141 138 151 193 188 183 192 149 154 193 203 186 189 204 186 183 163 203 202 171 210
260 253 234 214 148 170 168 143 142 143 133 138 139 132 154 143 139 196 185 209 194 197 132 201 180 179 180 175 174 206 192 189 177
Wind_Speed
31 47 47 47 47 45 42 42 40 33 40 39 40 34 34 37 32 30 37 36 34 34 30 31 32 33 33 31 35 33 35 35 38
31 31 53 48 44 45 46 44 44 43 43 39 40 40 34 29 31 32 32 31 34 34 34 34 32 34 34 36 35 35 35 35 37
32 41 31 38 53 43 43 47 46 46 39 43 42 32 33 40 40 39 40 40 40 39 40 35 36 37 37 38 37 39 39 40 40
60 60 36 36 37 50 46 48 48 47 47 46 44 40 42 41 37 34 39 42 41 41 41 43 41 40 38 41 42 42 43 43 41
59 67 66 58 52 52 56 52 46 50 49 48 45 47 47 43 43 42 43 45 44 43 44 43 44 43 42 43 45 45 45 46 46
60 61 60 65 54 53 46 52 54 56 50 52 52 50 48 48 47 43 39 35 38 38 46 44 44 44 45 46 47 49 49 49 50
58 62 62 56 64 54 60 47 37 54 43 44 46 38 43 49 43 49 49 48 47 48 49 47 49 51 50 50 51 53 54 54 49
60 64 61 65 40 46 65 64 60 61 59 63 58 54 40 51 51 47 50 44 45 47 50 50 47 49 51 54 51 55 54 52 53
44 64 69 66 68 69 63 69 62 64 66 56 66 64 57 56 56 56 56 54 53 53 52 52 52 52 52 53 53 53 55 57 58
64 67 70 53 72 69 71 74 72 71 69 67 63 60 65 64 60 58 60 59 57 58 53 57 56 56 54 55 54 57 55 56 56
66 71 70 70 74 74 73 74 76 75 75 64 70 68 65 61 65 60 61 59 60 61 59 59 58 59 53 58 59 58 49 53 53
65 70 76 80 73 75 58 71 77 44 46 78 69 73 73 65 63 63 43 63 62 45 44 61 63 62 58 48 59 58 61 59 58
63 54 67 51 68 80 75 80 63 74 77 75 75 61 65 59 66 68 69 66 56 66 67 65 66 64 63 62 61 62 61 62 59
60 65 83 70 58 69 82 72 66 79 73 77 67 75 77 74 77 64 66 69 70 70 69 66 66 65 63 65 64 63 62 63 62
79 84 88 59 69 72 56 58 74 54 61 83 79 79 76 74 70 75 74 71 64 73 72 70 73 62 59 67 67 66 65 65 65
95 92 92 87 54 55 68 60 89 71 58 58 60 62 66 77 68 64 73 75 74 73 61 63 59 58 62 73 70 67 67 63 69
75 63 62 82 59 57 57 58 55 57 72 68 69 80 70 71 73 64 74 82 67 64 64 69 63 67 68 65 70 67 69 67 70
73 67 87 65 62 61 61 60 60 61 60 60 63 65 83 83 76 72 81 65 72 72 63 69 72 78 82 77 79 73 72 71 75
102 101 98 77 80 103 66 65 62 60 61 62 64 57 64 91 87 81 88 62 64 81 81 75 74 80 77 76 69 78 76 73 78
94 101 108 109 75 83 84 67 65 67 63 66 67 60 68 61 60 95 86 93 90 85 56 81 76 76 77 75 75 80 78 77 77
Wind_Direction
244 236 235 241 242 234 230 233 242 247 239 241 242 247 249 248 256 253 249 255 252 254 261 265 269 258 274 279 279 281 281 283 260
246 241 249 239 243 247 246 239 236 234 236 240 240 242 249 252 254 257 257 257 258 259 258 260 270 273 276 264 270 274 274 273 277
252 244 250 245 246 243 250 247 241 242 248 243 239 258 259 246 251 251 254 258 254 259 258 272 275 267 260 260 277 281 274 281 282
244 242 248 252 251 247 247 248 242 243 242 242 242 245 244 246 255 264 256 258 255 256 258 260 273 262 278 280 277 281 279 278 281
243 240 245 245 241 240 248 240 242 251 239 242 244 242 244 244 248 251 252 255 256 266 266 267 269 274 276 278 278 274 276 275 277
244 247 246 253 243 253 255 241 245 248 246 251 247 244 246 246 248 254 262 267 268 269 262 268 271 275 276 275 275 272 273 274 272
247 246 248 249 252 251 249 245 243 243 250 250 256 256 259 255 257 250 254 256 264 257 260 262 263 264 265 267 268 268 269 270 282
243 244 247 249 253 255 252 255 247 248 245 255 257 261 263 260 261 263 264 269 269 269 264 263 263 264 265 267 276 269 271 278 278
248 243 247 244 250 250 253 252 251 251 252 256 255 256 261 262 261 255 257 262 269 269 270 272 268 266 271 273 276 277 277 277 277
242 247 245 249 249 248 249 251 251 252 251 254 257 256 258 260 259 266 263 264 265 267 271 268 264 270 275 268 273 277 273 274 275
247 247 247 249 250 251 249 251 251 251 251 256 253 255 261 260 262 263 263 264 263 265 266 266 268 270 274 274 277 274 282 280 284
243 246 246 246 247 245 251 251 250 257 257 253 255 254 255 262 264 265 267 263 264 271 273 267 269 268 274 279 270 270 277 274 274
245 253 236 251 248 246 247 249 257 252 253 252 255 259 257 261 262 259 262 266 266 263 264 266 266 268 270 272 272 275 273 276 274
251 251 243 246 252 253 248 252 253 253 249 251 259 256 257 255 261 264 262 263 264 264 266 266 267 267 270 271 272 274 275 275 277
245 247 250 249 252 254 254 256 256 255 257 256 257 255 256 257 258 256 257 260 264 260 264 267 268 270 273 270 271 273 277 281 276
241 244 246 251 250 251 252 252 253 257 260 261 262 260 260 258 260 260 260 261 259 260 269 269 272 272 274 267 273 275 277 281 279
247 254 253 249 252 252 253 255 257 257 256 257 257 258 255 261 261 262 254 256 265 267 268 267 270 273 272 273 274 274 275 274 275
254 255 244 254 255 254 254 253 253 256 259 261 262 261 250 263 261 257 254 264 267 267 268 268 267 267 267 271 272 274 276 276 278
237 238 238 251 252 244 255 255 253 255 259 262 262 261 263 263 261 263 264 268 268 265 263 265 271 270 269 273 275 275 277 275 278
236 236 238 239 254 246 247 255 256 256 257 259 261 261 256 259 263 267 265 263 266 266 270 263 268 269 271 273 274 274 277 277 277